Location: Casco Millpond
(44.5581°N, 87.6111°W)
Time: 21:25:59
(UTC+00:00)

Cosmos 1666 Rocket - Pass Details

Date: 16 January 2026
Orbit: 598 x 624 km, 82.5° (Epoch: 10 February)

Event Time Altitude Azimuth Distance (km) Brightness Sun altitude
Rises 12:30:42 0° 201° (SSW) 2,851 7.0 -9.3°
Reaches altitude 10° 12:32:57 10° 207° (SSW) 1,956 6.1 -8.9°
Maximum altitude 12:37:09 48° 283° (WNW) 804 3.8 -8.2°
Drops below altitude 10° 12:41:25 10° 358° (N) 1,988 5.9 -7.5°
Sets 12:43:44 0° 4° (N) 2,903 6.8 -7.1°
